Regional Weather Roundup
Issued by NWS

Home | Current Version | Previous Version | Graphics & Text | Print | Product List | Glossary On
Versions: 1 2 3 4 5 6 7 8 9 10 11 12 13 14 15 16 17 18 19 20 21 22 23 24 25 26 27 28 29 30 31 32 33 34 35 36 37 38 39 40 41 42 43 44 45 46 47 48 49 50
000
ASUS43 KFSD 181010
RWRSD

WEATHER ROUNDUP FOR SOUTH DAKOTA
NATIONAL WEATHER SERVICE SIOUX FALLS SD
400 AM CST WED JAN 18 2017

NOTE: "FAIR" INDICATES FEW OR NO CLOUDS BELOW 12,000 FEET WITH NO
SIGNIFICANT WEATHER AND/OR OBSTRUCTIONS TO VISIBILITY.


SDZ001>005-009-010-012>017-181100-
NORTHWEST AND NORTH CENTRAL SOUTH DAKOTA

CITY           SKY/WX    TMP DP  RH WIND       PRES   REMARKS
BUFFALO          N/A     34  22  61 W12       29.73F WCI  25
FAITH            N/A     25  17  72 SW9       29.81F WCI  15
MOBRIDGE       CLOUDY    17  10  74 SE9       29.77F WCI   6
$$

SDZ012>016-024>037-041>051-057-063-072>074-181100-
SOUTHWEST AND SOUTH CENTRAL SOUTH DAKOTA

CITY           SKY/WX    TMP DP  RH WIND       PRES   REMARKS
RAPID CTY ARPT CLEAR     31  19  61 NW6       29.84F WCI  25
PIERRE         CLOUDY    15  12  88 S5        29.85F WCI   8
CUSTER         CLOUDY    35  19  52 NW7       29.89F WCI  29
ELLSWORTH AFB  CLOUDY    28  19  69 W6        29.83F WCI  22
PHILIP         CLOUDY    27  18  69 W8        29.86S WCI  19
PINE RIDGE     CLOUDY    28  15  58 SW8       29.90F WCI  20
SPEARFISH      FAIR      36  23  60 S6        29.84F
WINNER         FAIR      33  20  58 SW8       29.88F WCI  26
$$

SDZ004>011-016>023-039-040-181100-
NORTHEAST SOUTH DAKOTA

CITY           SKY/WX    TMP DP  RH WIND       PRES   REMARKS
ABERDEEN       CLOUDY    17  11  77 S9        29.82F WCI   6
WATERTOWN      CLOUDY    21  19  92 SW10      29.84F WCI  10
BROOKINGS      CLOUDY    23  21  92 SE7       29.90R WCI  15
SISSETON         N/A     38  22  52 W9G16     29.76F
$$

SDZ017-020-022-023-036>040-048>070-181100-
SOUTHEAST SOUTH DAKOTA

CITY           SKY/WX    TMP DP  RH WIND       PRES   REMARKS
SIOUX FALLS    CLOUDY    30  27  88 S9        29.93F WCI  22
HURON          CLOUDY    21  20  96 MISG      29.88F
CHAMBERLAIN    CLOUDY    22  20  91 W3        29.90R
MITCHELL       CLOUDY    19  18  95 CALM      29.92S
YANKTON        CLOUDY    34  25  69 SW6       29.95R WCI  29
$$

ABBREVIATIONS USED IN REMARKS
   TC - TEMPERATURE IN CELSIUS
  WCI - WIND CHILL INDEX
   HX - HEAT INDEX
  VSB - VISIBILITY





USA.gov is the U.S. government's official web portal to all federal, state and local government web resources and services.